Location: Brachbach
(49.1847°N, 9.7240°E)
Time: 06:50:06
(UTC+00:00)

METEOR M2 - Visible Passes

Search period start: 11 March 2026 00:00
Search period end: 21 March 2026 00:00
Orbit: 817 x 824 km, 98.5° (Epoch: 10 March)

Date Brightness Start Highest point End Pass type
(mag) Time Alt. Az. Time Alt. Az. Time Alt. Az.
11 Mar ? 02:44:09 10° NE 02:48:27 24° E 02:52:45 10° SE visible
11 Mar ? 04:23:39 10° N 04:28:56 58° WNW 04:34:12 10° SSW visible
12 Mar ? 02:24:13 10° NE 02:27:33 16° E 02:30:52 10° SE visible
12 Mar ? 04:02:55 10° NNE 04:08:20 83° WNW 04:13:43 10° SSW visible
13 Mar ? 02:05:20 10° ENE 02:06:34 11° E 02:07:48 10° E visible
13 Mar ? 03:42:16 10° NNE 03:47:40 70° ESE 03:53:02 10° S visible
14 Mar ? 03:21:44 10° NNE 03:26:57 48° E 03:32:08 10° S visible
14 Mar ? 05:02:13 10° N 05:06:52 30° WNW 05:11:30 10° WSW visible
15 Mar ? 03:01:20 10° NNE 03:06:10 33° E 03:10:58 10° SSE visible
15 Mar ? 04:41:19 10° N 04:46:23 42° WNW 04:51:25 10° SW visible
16 Mar ? 02:41:06 10° NE 02:45:18 23° E 02:49:30 10° SE visible
16 Mar ? 04:20:31 10° N 04:25:50 61° WNW 04:31:07 10° SSW visible
17 Mar ? 02:21:14 10° NE 02:24:23 16° E 02:27:32 10° ESE visible
17 Mar ? 03:59:48 10° NNE 04:05:14 86° WNW 04:10:37 10° SSW visible
18 Mar ? 02:03:04 10° E 02:03:24 10° E 02:03:44 10° E visible
18 Mar ? 03:39:10 10° NNE 03:44:33 66° ESE 03:49:54 10° S visible
19 Mar ? 03:18:39 10° NNE 03:23:49 45° E 03:28:58 10° S visible
20 Mar ? 02:58:15 10° NNE 03:03:02 31° E 03:07:46 10° SSE visible
20 Mar ? 04:38:12 10° N 04:43:17 44° WNW 04:48:22 10° SW visible
